Regional Weather Roundup
Issued by NWS

Home | Current Version | Previous Version | Text Only | Print | Product List | Glossary Off
Versions: 1 2 3 4 5 6 7 8 9 10 11 12 13 14 15 16 17 18 19 20 21 22 23 24 25 26 27 28 29 30 31 32 33 34 35 36 37 38 39 40 41 42 43 44 45 46 47 48 49 50

000
ASUS43 KLSX 220557
RWRMO

WEATHER SUMMARY FOR MISSOURI
NATIONAL WEATHER SERVICE SPRINGFIELD MO
100 AM CDT SUN OCT 22 2017

NOTE: "FAIR" INDICATES FEW OR NO CLOUDS BELOW 12,000 FEET WITH NO
       SIGNIFICANT WEATHER AND/OR OBSTRUCTIONS TO VISIBILITY.
       CURRENT SKY AND/OR WEATHER CONDITIONS ARE NOT AVAILABLE FOR
       CHILLICOTHE AND FARMINGTON.

MOZ001>031-035>038-043-044-053-054-220700-
...NORTHERN AND WESTERN MISSOURI...

CITY           SKY/WX    TMP DP  RH WIND       PRES   REMARKS
KANSAS CTY INT LGT RAIN  51  49  92 NW8       29.99R
6HR MIN TEMP:  51; 6HR MAX TEMP:  64; 6HR PCP:  2.64;

LEE`S SUMMIT   RAIN      52  51  97 N15G24    29.98R
6HR MIN TEMP:  52; 6HR MAX TEMP:  74; 6HR PCP:  0.89;

ST JOSEPH      LGT RAIN  52  50  93 N8        29.99S
6HR MIN TEMP:  52; 6HR MAX TEMP:  60; 6HR PCP:  0.88;

CHILLICOTHE      N/A     53  52  96 NW12G18   29.94R
6HR MIN TEMP:  53; 6HR MAX TEMP:  75; 6HR PCP:  1.38;


$$
MOZ066>068-077>081-088>096-101>105-220700-
...SOUTHWEST MISSOURI...

CITY           SKY/WX    TMP DP  RH WIND       PRES   REMARKS
SPRINGFIELD    TSTM      59  58  96 NW21G47   29.89R FOG
6HR MIN TEMP:  59; 6HR MAX TEMP:  73; 6HR PCP: TRACE;

JOPLIN         RAIN      59  59 100 N8        29.93R
6HR MIN TEMP:  59; 6HR MAX TEMP:  76; 6HR PCP:  0.64;


$$
MOZ032>034-039>042-045>050-055>058-069>072-220700-
...CENTRAL MISSOURI...

CITY           SKY/WX    TMP DP  RH WIND       PRES   REMARKS
COLUMBIA       NOT AVBL
JEFFERSON CITY MOCLDY    69  65  86 SE6       29.85F
6HR MIN TEMP:  69; 6HR MAX TEMP:  76; 6HR PCP:  0.02;

ROLLA          CLOUDY    71  61  70 S15G23    29.90F
6HR MIN TEMP:  69; 6HR MAX TEMP:  72;

SEDALIA        LGT RAIN  61  61 100 N7        29.89F
6HR MIN TEMP:  61; 6HR MAX TEMP:  75; 6HR PCP:  0.63;

WARRENSBURG    RAIN      54  54 100 NW15G22   29.90S

$$
MOZ051-052-059>065-220700-
...EAST CENTRAL MISSOURI...

CITY           SKY/WX    TMP DP  RH WIND       PRES   REMARKS
ST LOUIS INTL  MOCLDY    71  62  73 SE16      29.96F
6HR MIN TEMP:  71; 6HR MAX TEMP:  77;


$$
MOZ072>076-082>087-097>100-106>115-220700-
...SOUTH CENTRAL AND SOUTHEAST MISSOURI...

CITY           SKY/WX    TMP DP  RH WIND       PRES   REMARKS
CAPE GIRARDEAU MOCLDY    68  60  75 S10       30.02F
6HR MIN TEMP:  68; 6HR MAX TEMP:  74;

POPLAR BLUFF   CLOUDY    70  63  78 S7        30.00F
6HR MIN TEMP:  70; 6HR MAX TEMP:  76;

WEST PLAINS    CLOUDY    71  63  75 S12G17    29.94F
6HR MIN TEMP:  71; 6HR MAX TEMP:  73;


$$


USA.gov is the U.S. government's official web portal to all federal, state and local government web resources and services.